Zurück zum Katalog

FENGYUN 1C DEB

AktivSSO
NORAD 30732·DEBRIS·🇨🇳 China

Gestartet May 10, 1999 von Taiyuan Satellite Launch Center

Loading…

Nächste Überflüge (nächste 24 Stunden)

TLE

AktuellSource: Space-Track

Epoche: Sep 14, 2026, 22:14 UTC

1 30732U 99025ASS 26257.92684124  .00000695  00000-0  43397-3 0  9997
2 30732  98.7893 274.2999 0124311 155.6933 322.0952 14.04180220   664

Verfolge FENGYUN 1C DEB in Echtzeit mit AllMySat

Download on the App Store